Regional Weather Roundup
Issued by NWS

Home | Current Version | Previous Version | Text Only | Print | Product List | Glossary On
Versions: 1 2 3 4 5 6 7 8 9 10 11 12 13 14 15 16 17 18 19 20 21 22 23 24 25 26 27
000
ASUS44 KBMX 250310
RWRAL

ALABAMA REGIONAL WEATHER ROUNDUP
NATIONAL WEATHER SERVICE BIRMINGHAM AL
900 PM CST FRI FEB 24 2017

NOTE: "FAIR" INDICATES FEW OR NO CLOUDS BELOW 12,000 FEET
WITH NO SIGNIFICANT WEATHER AND/OR OBSTRUCTIONS TO VISIBILITY.

THE REMARK "TC" DENOTES TEMPERATURE IN DEGREES CELSIUS.

ALZ001>011-014-016>018-020-250400-
NORTH ALABAMA

CITY           SKY/WX    TMP DP  RH WIND       PRES   REMARKS
MUSCLE SHOALS  MOCLDY    67  55  65 W8        29.70F
HUNTSVILLE     PTCLDY    69  56  62 S8        29.70S
DECATUR        MOCLDY    68  57  68 S10       29.69F
HALEYVILLE     CLOUDY    67  59  75 W8        29.74R
GADSDEN        CLEAR     65  57  75 CALM      29.75S
$$

ALZ012-013-022-023-030>036-040>044-250400-
WEST CENTRAL ALABAMA

CITY           SKY/WX    TMP DP  RH WIND       PRES   REMARKS
TUSCALOOSA     MOCLDY    70  57  63 S13       29.74S
$$

ALZ015-024>027-033>036-040>044-250400-
CENTRAL ALABAMA

CITY           SKY/WX    TMP DP  RH WIND       PRES   REMARKS
BIRMINGHAM     PTCLDY    70  57  63 S7        29.78R
MONTGOMERY     CLEAR     71  57  61 S6        29.79R
SHELBY CO ARPT PTCLDY    69  57  65 SW5       29.77R
MAXWELL AFB    CLEAR     70  60  69 S9        29.78R
GREENVILLE     FAIR      68  59  73 SW9       29.80S
$$

ALZ019-021-028-029-037-038-045>048-250400-
EAST CENTRAL ALABAMA

CITY           SKY/WX    TMP DP  RH WIND       PRES   REMARKS
ANNISTON       MOCLDY    70  55  59 SW5       29.76S
ALEXANDER CITY PTCLDY    67  56  68 S3        29.79S
AUBURN         PTCLDY    67  56  67 SW8       29.81S
$$

ALZ051>064-250400-
SOUTHWEST ALABAMA

CITY           SKY/WX    TMP DP  RH WIND       PRES   REMARKS
MOBILE         PTCLDY    66  64  93 S7        29.83S
BROOKLEY FIELD MOCLDY    69  68  96 S7        29.83S
EVERGREEN      CLEAR     65  62  90 S6        29.82R
$$

ALZ049-050-065>069-250400-
SOUTHEAST ALABAMA

CITY           SKY/WX    TMP DP  RH WIND       PRES   REMARKS
DOTHAN         CLEAR     66  59  78 SW9       29.86R
OZARK          CLEAR     65  60  84 SW8       29.83R
TROY           CLEAR     67  59  75 S8        29.82R
EUFAULA        FAIR      64  56  75 S5        29.80S
$$




USA.gov is the U.S. government's official web portal to all federal, state and local government web resources and services.